contact:dominique.lefevre@mio.osupytheas.fr, maurice.libes@osupytheas.fr, didier.mallarino@osupytheas.fr
Project:EMSO http://www.emso-fr.org/EMSO-France
Depth: 2436.0 m
Title:EMSO Ligure Ouest : Data MII capteur AQUADOPP
Date,Latitude,Longitude,X_East,Y_North,Z_Up,Amplitude_X,Amplitude_Y,Amplitude_Z,Batterie,SoundSpeed,Heading,Pitch,Roll,Pressure,TIS,Speed,Direction
, degrees North, degrees East, m.s-1, m.s-1,m.s-1, 1, 1, 1, Volt, m.s-1, degree, degree, degree, dbar, degree_C, m.s-1, degree
2023-08-08T00:04:03,42.805,6.029,0.001,-0.016,0.001,105.0,103.0,105.0,13.4,1505.2,329.1,-0.8,1.8,2471.536,13.29,0.016,176.4
2023-08-08T00:07:03,42.805,6.029,-0.032,-0.011,-0.058,106.0,105.0,102.0,13.4,1505.2,320.5,-0.8,1.8,2471.516,13.29,0.033,251.0
2023-08-08T00:10:03,42.805,6.029,0.004,0.007,-0.01,104.0,105.0,103.0,13.3,1505.2,332.9,-0.8,1.8,2471.52,13.29,0.008,29.7
2023-08-08T00:13:03,42.805,6.029,-0.002,-0.001,-0.016,105.0,105.0,103.0,13.3,1505.2,329.2,-0.8,1.9,2471.544,13.3,0.002,243.4
2023-08-08T00:16:03,42.805,6.029,0.007,-0.002,-0.056,105.0,104.0,102.0,13.4,1505.2,338.3,-0.8,1.8,2471.492,13.3,0.007,105.9
2023-08-08T00:19:03,42.805,6.029,0.005,-0.01,-0.03,105.0,104.0,101.0,13.4,1505.2,334.3,-0.7,1.8,2471.48,13.3,0.011,153.4
2023-08-08T00:22:03,42.805,6.029,0.006,0.0,-0.029,103.0,105.0,103.0,13.4,1505.2,329.8,-0.8,1.8,2471.481,13.3,0.006,90.0
2023-08-08T00:25:03,42.805,6.029,0.007,-0.007,-0.022,105.0,105.0,102.0,13.4,1505.2,344.6,-0.8,1.8,2471.479,13.3,0.009,135.0
2023-08-08T00:28:03,42.805,6.029,0.028,0.0,-0.003,103.0,104.0,102.0,13.4,1505.2,345.9,-0.8,1.8,2471.491,13.3,0.028,90.0
2023-08-08T00:31:03,42.805,6.029,-0.012,-0.023,-0.013,105.0,104.0,103.0,13.4,1505.2,330.1,-0.8,1.8,2471.478,13.3,0.025,207.6
2023-08-08T00:34:03,42.805,6.029,0.001,-0.003,-0.009,104.0,103.0,103.0,13.4,1505.2,340.4,-0.7,1.8,2471.476,13.3,0.003,161.6
2023-08-08T00:37:03,42.805,6.029,0.004,-0.016,-0.034,104.0,103.0,102.0,13.4,1505.2,327.9,-0.8,1.8,2471.474,13.3,0.016,166.0
2023-08-08T00:40:03,42.805,6.029,-0.012,-0.002,-0.02,105.0,104.0,103.0,13.4,1505.2,351.7,-0.8,1.8,2471.516,13.29,0.012,260.5
2023-08-08T00:43:03,42.805,6.029,-0.003,0.01,-0.026,105.0,104.0,103.0,13.4,1505.2,339.1,-0.8,1.8,2471.503,13.29,0.01,343.3
2023-08-08T00:46:03,42.805,6.029,-0.003,-0.014,-0.039,104.0,104.0,102.0,13.4,1505.2,323.1,-0.8,1.8,2471.524,13.29,0.014,192.1
2023-08-08T00:49:03,42.805,6.029,-0.011,-0.007,-0.044,105.0,104.0,102.0,13.4,1505.2,331.3,-0.7,1.8,2471.488,13.29,0.013,237.5
2023-08-08T00:52:03,42.805,6.029,-0.003,-0.019,-0.035,104.0,104.0,103.0,13.4,1505.2,331.9,-0.8,1.8,2471.472,13.29,0.019,189.0
2023-08-08T00:55:03,42.805,6.029,-0.003,-0.003,-0.013,105.0,104.0,103.0,13.4,1505.2,344.3,-0.8,1.8,2471.487,13.29,0.004,225.0
2023-08-08T00:58:03,42.805,6.029,0.013,-0.005,-0.01,104.0,104.0,102.0,13.4,1505.2,328.4,-0.8,1.8,2471.484,13.29,0.013,111.0
2023-08-08T01:04:03,42.805,6.029,0.0,0.0,-0.007,105.0,105.0,105.0,13.4,1505.2,322.5,-0.8,1.8,2471.512,13.29,0.0,0.0
2023-08-08T01:07:03,42.805,6.029,0.009,-0.013,0.007,104.0,104.0,102.0,13.4,1505.2,344.4,-0.7,1.8,2471.529,13.29,0.015,145.3
2023-08-08T01:10:03,42.805,6.029,0.011,0.016,-0.004,104.0,103.0,103.0,13.4,1505.2,343.0,-0.8,1.8,2471.486,13.29,0.019,34.5
2023-08-08T01:13:03,42.805,6.029,-0.015,0.0,-0.033,105.0,103.0,103.0,13.4,1505.2,325.1,-0.8,1.8,2471.506,13.29,0.015,270.0
2023-08-08T01:16:03,42.805,6.029,-0.011,-0.019,-0.034,103.0,103.0,103.0,13.4,1505.2,339.3,-0.8,1.8,2471.511,13.29,0.021,210.1
2023-08-08T01:19:03,42.805,6.029,-0.006,-0.005,-0.025,104.0,104.0,103.0,13.3,1505.2,326.5,-0.8,1.8,2471.497,13.29,0.007,230.2
2023-08-08T01:22:03,42.805,6.029,0.002,0.0,-0.028,103.0,104.0,103.0,13.3,1505.2,345.6,-0.7,1.8,2471.489,13.29,0.002,90.0
2023-08-08T01:25:03,42.805,6.029,-0.015,0.008,-0.015,105.0,103.0,103.0,13.4,1505.2,327.5,-0.8,1.8,2471.46,13.29,0.017,298.1
2023-08-08T01:28:03,42.805,6.029,-0.001,0.005,-0.005,105.0,104.0,102.0,13.3,1505.2,343.3,-0.8,1.8,2471.469,13.29,0.005,348.7
2023-08-08T01:31:03,42.805,6.029,-0.005,0.021,-0.014,104.0,104.0,103.0,13.4,1505.2,339.7,-0.7,1.8,2471.499,13.29,0.021,346.6
2023-08-08T01:34:03,42.805,6.029,0.002,-0.007,-0.027,103.0,103.0,103.0,13.3,1505.2,335.6,-0.8,1.8,2471.502,13.29,0.007,164.1
2023-08-08T01:37:03,42.805,6.029,-0.008,0.01,-0.023,105.0,103.0,102.0,13.4,1505.2,320.9,-0.8,1.8,2471.445,13.29,0.012,321.3
2023-08-08T01:40:03,42.805,6.029,0.006,0.001,0.0,105.0,104.0,101.0,13.4,1505.2,329.5,-0.8,1.8,2471.478,13.29,0.006,80.5
2023-08-08T01:43:03,42.805,6.029,-0.008,0.007,-0.004,104.0,104.0,103.0,13.4,1505.2,322.7,-0.8,1.8,2471.461,13.29,0.01,311.2
2023-08-08T01:46:03,42.805,6.029,-0.004,-0.007,-0.019,104.0,103.0,103.0,13.4,1505.2,323.6,-0.8,1.8,2471.493,13.29,0.008,209.7
2023-08-08T01:49:03,42.805,6.029,-0.027,0.012,-0.015,105.0,104.0,103.0,13.3,1505.2,327.7,-0.8,1.9,2471.464,13.29,0.029,294.0
2023-08-08T01:52:03,42.805,6.029,-0.014,0.006,-0.008,104.0,102.0,103.0,13.4,1505.2,323.1,-0.8,1.8,2471.497,13.29,0.015,293.2
2023-08-08T01:55:03,42.805,6.029,0.008,-0.013,-0.041,104.0,104.0,102.0,13.3,1505.2,345.0,-0.8,1.8,2471.463,13.29,0.015,148.4
2023-08-08T01:58:03,42.805,6.029,0.014,-0.005,-0.005,105.0,104.0,102.0,13.3,1505.2,338.9,-0.8,1.9,2471.45,13.29,0.014,109.6
2023-08-08T02:04:03,42.805,6.029,0.015,-0.014,-0.021,103.0,104.0,102.0,13.4,1505.2,336.6,-0.8,1.8,2471.515,13.29,0.02,133.0
2023-08-08T02:07:03,42.805,6.029,0.003,-0.008,-0.027,105.0,104.0,101.0,13.4,1505.2,349.9,-0.8,1.8,2471.499,13.29,0.008,159.4
2023-08-08T02:10:03,42.805,6.029,0.009,0.0,-0.008,104.0,106.0,102.0,13.3,1505.2,339.7,-0.8,1.8,2471.503,13.29,0.009,90.0
2023-08-08T02:13:03,42.805,6.029,0.018,-0.017,-0.005,103.0,104.0,101.0,13.4,1505.2,333.0,-0.8,1.8,2471.493,13.29,0.024,133.4
2023-08-08T02:16:03,42.805,6.029,0.012,-0.009,-0.022,104.0,104.0,102.0,13.4,1505.2,332.1,-0.8,1.8,2471.489,13.29,0.015,126.9
2023-08-08T02:19:03,42.805,6.029,-0.026,0.018,-0.038,104.0,104.0,102.0,13.4,1505.2,330.2,-0.8,1.8,2471.463,13.29,0.031,304.7
2023-08-08T02:22:03,42.805,6.029,0.003,0.017,-0.004,103.0,104.0,102.0,13.4,1505.2,346.2,-0.8,1.8,2471.43,13.29,0.017,10.0
2023-08-08T02:25:03,42.805,6.029,0.016,-0.022,-0.032,103.0,105.0,102.0,13.3,1505.2,345.7,-0.8,1.8,2471.482,13.29,0.027,144.0
2023-08-08T02:28:03,42.805,6.029,0.016,-0.003,-0.022,103.0,105.0,102.0,13.4,1505.2,343.7,-0.8,1.8,2471.443,13.29,0.016,100.6
2023-08-08T02:31:03,42.805,6.029,0.009,0.019,-0.035,104.0,103.0,102.0,13.3,1505.2,324.7,-0.8,1.8,2471.483,13.29,0.021,25.3
2023-08-08T02:34:03,42.805,6.029,0.021,-0.01,-0.024,104.0,103.0,103.0,13.4,1505.2,329.2,-0.8,1.8,2471.465,13.29,0.023,115.5
2023-08-08T02:37:03,42.805,6.029,0.005,-0.011,-0.007,104.0,105.0,102.0,13.4,1505.2,344.7,-0.8,1.8,2471.449,13.29,0.012,155.6
2023-08-08T02:40:03,42.805,6.029,0.011,0.001,-0.013,104.0,105.0,101.0,13.3,1505.2,338.8,-0.8,1.8,2471.455,13.29,0.011,84.8
2023-08-08T02:43:03,42.805,6.029,0.0,0.012,-0.035,104.0,103.0,101.0,13.4,1505.2,335.8,-0.8,1.8,2471.429,13.29,0.012,0.0
2023-08-08T02:46:03,42.805,6.029,0.011,0.006,-0.008,104.0,102.0,103.0,13.4,1505.2,345.6,-0.7,1.8,2471.419,13.29,0.012,61.4
2023-08-08T02:49:03,42.805,6.029,0.0,0.0,-0.012,103.0,103.0,102.0,13.4,1505.2,324.0,-0.8,1.8,2471.427,13.29,0.0,0.0
2023-08-08T02:52:03,42.805,6.029,0.004,-0.023,-0.055,103.0,103.0,102.0,13.4,1505.2,336.1,-0.8,1.8,2471.432,13.29,0.023,170.1
2023-08-08T02:55:03,42.805,6.029,0.003,-0.009,-0.033,103.0,104.0,102.0,13.3,1505.2,345.9,-0.8,1.8,2471.454,13.29,0.009,161.6
2023-08-08T02:58:03,42.805,6.029,0.007,0.008,-0.033,102.0,104.0,102.0,13.3,1505.2,338.4,-0.8,1.8,2471.429,13.29,0.01,41.2
2023-08-08T03:04:03,42.805,6.029,0.004,0.027,-0.002,103.0,103.0,103.0,13.3,1505.2,323.3,-0.7,1.8,2471.47,13.29,0.027,8.4
2023-08-08T03:07:03,42.805,6.029,-0.003,-0.012,-0.033,103.0,103.0,102.0,13.4,1505.2,340.3,-0.8,1.8,2471.476,13.29,0.012,194.0
2023-08-08T03:10:03,42.805,6.029,0.011,-0.006,-0.007,103.0,103.0,102.0,13.3,1505.2,333.4,-0.7,1.8,2471.469,13.29,0.012,118.6
2023-08-08T03:13:03,42.805,6.029,0.023,-0.009,0.025,102.0,105.0,102.0,13.4,1505.2,348.9,-0.8,1.8,2471.474,13.29,0.024,111.4
2023-08-08T03:16:03,42.805,6.029,0.001,0.005,-0.016,103.0,102.0,103.0,13.4,1505.2,331.3,-0.8,1.8,2471.429,13.29,0.005,11.3
2023-08-08T03:19:03,42.805,6.029,-0.003,-0.006,-0.006,103.0,102.0,103.0,13.4,1505.2,342.8,-0.8,1.8,2471.444,13.29,0.006,206.6
2023-08-08T03:22:03,42.805,6.029,0.006,-0.006,-0.006,104.0,105.0,102.0,13.4,1505.2,324.8,-0.8,1.8,2471.433,13.29,0.008,135.0
2023-08-08T03:25:03,42.805,6.029,0.019,-0.024,-0.011,105.0,104.0,102.0,13.3,1505.2,338.8,-0.8,1.8,2471.433,13.29,0.03,141.6
2023-08-08T03:28:03,42.805,6.029,-0.001,-0.006,-0.03,104.0,103.0,103.0,13.4,1505.2,351.5,-0.8,1.8,2471.428,13.29,0.006,189.5
2023-08-08T03:31:03,42.805,6.029,-0.004,0.008,-0.038,104.0,105.0,102.0,13.4,1505.2,323.4,-0.8,1.8,2471.438,13.29,0.008,333.4
2023-08-08T03:34:03,42.805,6.029,-0.013,0.0,0.004,102.0,104.0,102.0,13.4,1505.2,319.7,-0.8,1.8,2471.462,13.29,0.013,270.0
2023-08-08T03:37:03,42.805,6.029,0.021,-0.003,-0.01,106.0,101.0,102.0,13.3,1505.2,350.3,-0.8,1.8,2471.443,13.29,0.021,98.1
2023-08-08T03:40:03,42.805,6.029,0.002,0.002,-0.023,103.0,104.0,102.0,13.4,1505.2,340.4,-0.7,1.8,2471.408,13.29,0.002,45.0
2023-08-08T03:43:03,42.805,6.029,-0.011,0.008,0.004,104.0,106.0,102.0,13.4,1505.2,322.9,-0.8,1.8,2471.416,13.29,0.013,306.0
2023-08-08T03:46:03,42.805,6.029,-0.012,-0.024,-0.035,103.0,103.0,102.0,13.4,1505.2,335.5,-0.8,1.8,2471.408,13.3,0.026,206.6
2023-08-08T03:49:03,42.805,6.029,-0.026,-0.013,-0.045,103.0,104.0,103.0,13.4,1505.2,337.4,-0.8,1.8,2471.4,13.3,0.029,243.4
2023-08-08T03:52:03,42.805,6.029,0.001,-0.001,-0.038,103.0,105.0,102.0,13.4,1505.2,333.0,-0.8,1.8,2471.421,13.3,0.001,135.0
2023-08-08T03:55:03,42.805,6.029,0.008,-0.002,-0.05,103.0,104.0,103.0,13.4,1505.2,329.3,-0.7,1.8,2471.439,13.3,0.008,104.0
2023-08-08T03:58:03,42.805,6.029,-0.012,0.0,0.011,103.0,105.0,102.0,13.3,1505.2,322.7,-0.8,1.8,2471.424,13.3,0.012,270.0
2023-08-08T04:04:03,42.805,6.029,0.011,0.007,-0.041,105.0,104.0,102.0,13.4,1505.2,334.2,-0.8,1.8,2471.472,13.29,0.013,57.5
2023-08-08T04:07:03,42.805,6.029,0.011,0.008,-0.007,104.0,103.0,103.0,13.3,1505.2,342.2,-0.8,1.8,2471.457,13.29,0.013,54.0
2023-08-08T04:10:03,42.805,6.029,0.013,0.004,-0.037,103.0,103.0,104.0,13.4,1505.2,327.9,-0.8,1.8,2471.455,13.29,0.013,72.9
2023-08-08T04:13:03,42.805,6.029,0.008,0.01,0.006,103.0,105.0,102.0,13.4,1505.2,322.9,-0.8,1.8,2471.471,13.29,0.012,38.7
2023-08-08T04:16:03,42.805,6.029,0.003,0.008,-0.021,105.0,103.0,102.0,13.3,1505.2,332.9,-0.7,1.8,2471.455,13.29,0.008,20.6
2023-08-08T04:19:03,42.805,6.029,0.014,0.009,-0.019,105.0,104.0,102.0,13.4,1505.2,339.5,-0.8,1.8,2471.447,13.29,0.016,57.3
2023-08-08T04:22:03,42.805,6.029,0.002,0.002,-0.033,104.0,104.0,103.0,13.4,1505.2,348.4,-0.8,1.8,2471.409,13.29,0.002,45.0
2023-08-08T04:25:03,42.805,6.029,-0.005,0.01,-0.024,107.0,102.0,103.0,13.3,1505.2,333.4,-0.8,1.8,2471.408,13.29,0.011,333.4
2023-08-08T04:28:03,42.805,6.029,-0.006,0.008,-0.002,106.0,102.0,104.0,13.4,1505.2,327.4,-0.7,1.9,2471.411,13.29,0.01,323.1
2023-08-08T04:31:03,42.805,6.029,0.006,0.001,-0.043,103.0,103.0,103.0,13.3,1505.2,321.1,-0.7,1.8,2471.425,13.3,0.006,80.5
2023-08-08T04:34:03,42.805,6.029,0.01,0.002,-0.017,105.0,103.0,102.0,13.4,1505.2,336.8,-0.7,1.8,2471.383,13.3,0.01,78.7
2023-08-08T04:37:03,42.805,6.029,0.009,-0.002,-0.008,104.0,104.0,102.0,13.4,1505.2,350.5,-0.8,1.8,2471.413,13.3,0.009,102.5
2023-08-08T04:40:03,42.805,6.029,-0.007,0.015,-0.036,105.0,104.0,103.0,13.3,1505.2,339.1,-0.8,1.8,2471.403,13.3,0.016,335.0
2023-08-08T04:43:03,42.805,6.029,-0.006,-0.009,-0.05,106.0,104.0,103.0,13.4,1505.2,329.8,-0.8,1.8,2471.41,13.3,0.01,213.7
2023-08-08T04:46:03,42.805,6.029,-0.007,-0.016,-0.036,103.0,104.0,103.0,13.4,1505.3,329.0,-0.8,1.8,2471.387,13.31,0.017,203.6
2023-08-08T04:49:03,42.805,6.029,0.009,0.004,0.002,104.0,103.0,104.0,13.4,1505.3,329.8,-0.8,1.8,2471.427,13.31,0.009,66.0
2023-08-08T04:52:03,42.805,6.029,0.021,0.012,-0.005,102.0,105.0,103.0,13.3,1505.3,336.6,-0.8,1.8,2471.419,13.31,0.024,60.3
2023-08-08T04:55:03,42.805,6.029,0.001,0.0,-0.013,102.0,104.0,102.0,13.3,1505.3,324.7,-0.8,1.8,2471.403,13.31,0.001,90.0
2023-08-08T04:58:03,42.805,6.029,-0.005,0.005,-0.026,104.0,104.0,101.0,13.4,1505.3,325.7,-0.8,1.8,2471.407,13.31,0.007,315.0
2023-08-08T05:04:03,42.805,6.029,0.002,-0.006,-0.032,105.0,105.0,102.0,13.3,1505.2,349.9,-0.8,1.9,2471.437,13.3,0.006,161.6
2023-08-08T05:07:03,42.805,6.029,-0.018,0.005,0.013,104.0,104.0,102.0,13.4,1505.2,322.7,-0.8,1.8,2471.426,13.3,0.018,285.5
2023-08-08T05:10:03,42.805,6.029,-0.006,0.008,-0.024,105.0,103.0,102.0,13.4,1505.3,348.2,-0.8,1.8,2471.408,13.31,0.01,323.1
2023-08-08T05:13:03,42.805,6.029,0.007,0.0,-0.023,104.0,103.0,103.0,13.4,1505.3,332.0,-0.8,1.8,2471.373,13.31,0.007,90.0
2023-08-08T05:16:03,42.805,6.029,0.0,-0.009,-0.029,104.0,104.0,102.0,13.3,1505.3,329.9,-0.8,1.8,2471.395,13.31,0.009,180.0
2023-08-08T05:19:03,42.805,6.029,0.002,-0.003,-0.014,104.0,106.0,103.0,13.4,1505.3,344.7,-0.8,1.8,2471.411,13.31,0.003,146.3
2023-08-08T05:22:03,42.805,6.029,-0.018,0.012,-0.01,103.0,104.0,102.0,13.3,1505.3,324.2,-0.8,1.8,2471.402,13.31,0.021,303.7
2023-08-08T05:25:03,42.805,6.029,0.027,0.002,0.01,104.0,102.0,101.0,13.4,1505.3,340.5,-0.8,1.8,2471.392,13.31,0.027,85.8
2023-08-08T05:28:03,42.805,6.029,0.002,0.011,-0.026,104.0,101.0,102.0,13.3,1505.3,345.2,-0.7,1.8,2471.413,13.31,0.011,10.3
2023-08-08T05:31:03,42.805,6.029,-0.003,-0.033,-0.028,104.0,103.0,104.0,13.3,1505.3,324.5,-0.8,1.8,2471.386,13.31,0.033,185.2
2023-08-08T05:34:03,42.805,6.029,0.005,-0.007,-0.022,105.0,102.0,102.0,13.4,1505.3,336.6,-0.7,1.8,2471.38,13.31,0.008,144.5
2023-08-08T05:37:03,42.805,6.029,0.011,-0.001,-0.017,105.0,104.0,102.0,13.4,1505.3,341.5,-0.7,1.8,2471.37,13.31,0.011,95.2
2023-08-08T05:40:03,42.805,6.029,0.018,-0.001,-0.03,103.0,103.0,102.0,13.3,1505.3,326.5,-0.8,1.8,2471.385,13.31,0.018,93.2
2023-08-08T05:43:03,42.805,6.029,0.01,-0.009,-0.037,103.0,103.0,103.0,13.4,1505.3,325.5,-0.8,1.9,2471.388,13.31,0.013,132.0
2023-08-08T05:46:03,42.805,6.029,-0.005,0.0,-0.005,104.0,104.0,103.0,13.4,1505.3,331.5,-0.8,1.8,2471.372,13.31,0.005,270.0
2023-08-08T05:49:03,42.805,6.029,0.007,-0.006,-0.006,105.0,103.0,102.0,13.3,1505.2,341.5,-0.8,1.9,2471.379,13.3,0.009,130.6
2023-08-08T05:52:03,42.805,6.029,0.002,0.008,-0.022,103.0,104.0,102.0,13.3,1505.2,322.5,-0.7,1.8,2471.372,13.3,0.008,14.0
2023-08-08T05:55:03,42.805,6.029,-0.005,-0.005,-0.054,105.0,102.0,102.0,13.3,1505.2,326.9,-0.7,1.8,2471.401,13.3,0.007,225.0
2023-08-08T05:58:03,42.805,6.029,0.009,0.004,-0.023,109.0,104.0,102.0,13.4,1505.2,328.3,-0.8,1.8,2471.383,13.3,0.009,66.0
2023-08-08T06:04:03,42.805,6.029,-0.008,0.028,-0.011,105.0,104.0,101.0,13.4,1505.2,321.0,-0.7,1.8,2471.446,13.29,0.029,344.1
2023-08-08T06:07:03,42.805,6.029,-0.006,-0.007,-0.043,105.0,102.0,102.0,13.4,1505.2,332.2,-0.8,1.8,2471.414,13.29,0.009,220.6
2023-08-08T06:10:03,42.805,6.029,0.013,0.006,0.003,105.0,103.0,103.0,13.3,1505.2,343.0,-0.8,1.8,2471.421,13.29,0.014,65.2
2023-08-08T06:13:03,42.805,6.029,0.0,0.007,-0.014,103.0,103.0,102.0,13.4,1505.2,333.4,-0.8,1.8,2471.411,13.29,0.007,0.0
2023-08-08T06:16:03,42.805,6.029,0.004,-0.018,-0.008,102.0,103.0,102.0,13.4,1505.2,346.6,-0.8,1.8,2471.364,13.29,0.018,167.5
2023-08-08T06:19:03,42.805,6.029,0.003,0.003,-0.031,105.0,105.0,102.0,13.4,1505.2,323.6,-0.8,1.8,2471.39,13.29,0.004,45.0
2023-08-08T06:22:03,42.805,6.029,-0.006,0.006,-0.01,103.0,105.0,102.0,13.4,1505.2,324.0,-0.8,1.8,2471.383,13.29,0.008,315.0
2023-08-08T06:25:03,42.805,6.029,0.011,-0.001,-0.043,103.0,104.0,102.0,13.4,1505.2,347.7,-0.8,1.8,2471.382,13.29,0.011,95.2
2023-08-08T06:28:03,42.805,6.029,-0.012,0.008,-0.002,106.0,104.0,104.0,13.4,1505.2,348.6,-0.8,1.8,2471.368,13.29,0.014,303.7
2023-08-08T06:31:03,42.805,6.029,0.02,-0.008,-0.027,105.0,105.0,102.0,13.4,1505.2,326.0,-0.8,1.8,2471.401,13.29,0.021,111.8
2023-08-08T06:34:03,42.805,6.029,0.016,-0.005,-0.005,105.0,103.0,102.0,13.4,1505.2,342.9,-0.8,1.8,2471.406,13.29,0.016,107.4
2023-08-08T06:37:03,42.805,6.029,0.004,0.008,-0.022,105.0,104.0,102.0,13.3,1505.2,350.1,-0.8,1.8,2471.367,13.29,0.008,26.6
2023-08-08T06:40:03,42.805,6.029,-0.003,0.018,-0.037,104.0,103.0,102.0,13.3,1505.2,334.3,-0.8,1.8,2471.319,13.29,0.018,350.5
2023-08-08T06:43:03,42.805,6.029,-0.011,-0.015,-0.023,103.0,103.0,102.0,13.3,1505.2,331.2,-0.7,1.8,2471.366,13.29,0.018,216.3
2023-08-08T06:46:03,42.805,6.029,-0.012,0.011,0.0,105.0,103.0,103.0,13.4,1505.2,335.6,-0.8,1.8,2471.372,13.29,0.016,312.5
2023-08-08T06:49:03,42.805,6.029,0.004,0.006,0.0,103.0,103.0,102.0,13.4,1505.2,324.2,-0.7,1.8,2471.392,13.29,0.007,33.7
2023-08-08T06:52:03,42.805,6.029,-0.003,0.029,-0.018,104.0,103.0,102.0,13.4,1505.2,334.9,-0.7,1.8,2471.376,13.29,0.029,354.1
2023-08-08T06:55:03,42.805,6.029,0.0,-0.001,-0.011,104.0,104.0,102.0,13.4,1505.2,328.1,-0.7,1.8,2471.396,13.29,0.001,180.0
2023-08-08T06:58:03,42.805,6.029,0.001,0.009,-0.019,104.0,104.0,102.0,13.4,1505.2,319.7,-0.8,1.8,2471.35,13.29,0.009,6.3
2023-08-08T07:04:03,42.805,6.029,-0.004,-0.003,-0.005,105.0,103.0,102.0,13.4,1505.2,331.8,-0.7,1.8,2471.437,13.29,0.005,233.1
2023-08-08T07:07:03,42.805,6.029,-0.006,-0.012,-0.031,104.0,104.0,101.0,13.4,1505.2,329.0,-0.8,1.8,2471.401,13.29,0.013,206.6
2023-08-08T07:10:03,42.805,6.029,0.023,-0.026,-0.043,103.0,102.0,103.0,13.3,1505.2,327.2,-0.8,1.8,2471.436,13.29,0.034,138.5
2023-08-08T07:13:03,42.805,6.029,0.009,0.005,-0.001,104.0,104.0,102.0,13.4,1505.2,328.2,-0.8,1.8,2471.394,13.29,0.01,60.9
2023-08-08T07:16:03,42.805,6.029,0.001,-0.008,-0.029,104.0,103.0,101.0,13.4,1505.2,332.5,-0.8,1.8,2471.405,13.29,0.008,172.9
2023-08-08T07:19:03,42.805,6.029,0.009,-0.001,-0.011,103.0,105.0,102.0,13.4,1505.2,347.7,-0.8,1.8,2471.412,13.29,0.009,96.3
2023-08-08T07:22:03,42.805,6.029,0.016,-0.007,-0.026,104.0,104.0,102.0,13.4,1505.2,331.1,-0.7,1.8,2471.399,13.29,0.017,113.6
2023-08-08T07:25:03,42.805,6.029,-0.001,-0.003,-0.026,104.0,105.0,102.0,13.3,1505.2,321.0,-0.8,1.8,2471.381,13.29,0.003,198.4
2023-08-08T07:28:03,42.805,6.029,-0.002,0.01,-0.004,105.0,103.0,103.0,13.4,1505.2,347.4,-0.8,1.8,2471.338,13.29,0.01,348.7
2023-08-08T07:31:03,42.805,6.029,0.021,0.009,0.001,105.0,105.0,102.0,13.3,1505.2,333.4,-0.8,1.8,2471.37,13.29,0.022,66.8
2023-08-08T07:34:03,42.805,6.029,-0.001,-0.009,0.006,104.0,104.0,103.0,13.3,1505.2,351.3,-0.8,1.8,2471.36,13.29,0.009,186.3
2023-08-08T07:37:03,42.805,6.029,-0.002,0.003,0.009,103.0,102.0,101.0,13.4,1505.2,340.0,-0.8,1.8,2471.358,13.29,0.003,326.3
2023-08-08T07:40:03,42.805,6.029,-0.016,0.009,-0.049,104.0,103.0,102.0,13.4,1505.2,344.0,-0.7,1.8,2471.377,13.29,0.018,299.4
2023-08-08T07:43:03,42.805,6.029,-0.006,0.0,-0.027,104.0,103.0,102.0,13.4,1505.2,333.8,-0.7,1.8,2471.349,13.29,0.006,270.0
2023-08-08T07:46:03,42.805,6.029,0.0,0.007,-0.008,103.0,104.0,102.0,13.4,1505.2,330.2,-0.7,1.8,2471.399,13.29,0.007,0.0
2023-08-08T07:49:03,42.805,6.029,-0.017,0.001,-0.021,103.0,104.0,102.0,13.4,1505.2,336.3,-0.8,1.8,2471.419,13.29,0.017,273.4
2023-08-08T07:52:03,42.805,6.029,0.013,-0.012,-0.022,104.0,104.0,102.0,13.3,1505.2,352.0,-0.8,1.8,2471.38,13.29,0.017,132.7
2023-08-08T07:55:03,42.805,6.029,-0.009,-0.005,-0.031,104.0,103.0,103.0,13.4,1505.2,325.9,-0.7,1.8,2471.427,13.29,0.01,240.9
2023-08-08T07:58:03,42.805,6.029,0.0,-0.008,-0.024,103.0,103.0,102.0,13.4,1505.2,339.5,-0.8,1.8,2471.398,13.3,0.008,180.0
2023-08-08T08:04:03,42.805,6.029,-0.022,0.034,0.004,107.0,104.0,103.0,13.4,1505.2,321.6,-0.8,1.8,2471.421,13.3,0.04,327.1
2023-08-08T08:07:03,42.805,6.029,-0.014,0.001,-0.032,104.0,103.0,104.0,13.4,1505.2,328.8,-0.7,1.8,2471.406,13.3,0.014,274.1
2023-08-08T08:10:03,42.805,6.029,0.014,0.004,-0.026,105.0,101.0,103.0,13.4,1505.2,349.1,-0.8,1.8,2471.383,13.3,0.014,74.1
2023-08-08T08:13:03,42.805,6.029,0.024,0.004,-0.007,106.0,104.0,103.0,13.4,1505.2,324.2,-0.8,1.8,2471.42,13.3,0.024,80.5
2023-08-08T08:16:03,42.805,6.029,-0.013,0.0,-0.016,104.0,105.0,103.0,13.4,1505.2,342.2,-0.7,1.8,2471.442,13.3,0.013,270.0
2023-08-08T08:19:03,42.805,6.029,-0.009,0.021,-0.015,104.0,104.0,103.0,13.4,1505.2,335.1,-0.7,1.8,2471.422,13.3,0.022,336.8
2023-08-08T08:22:03,42.805,6.029,-0.001,0.008,-0.01,104.0,104.0,102.0,13.4,1505.2,334.4,-0.7,1.8,2471.443,13.3,0.008,352.9
2023-08-08T08:25:03,42.805,6.029,-0.001,0.006,-0.018,104.0,103.0,101.0,13.4,1505.2,339.8,-0.8,1.9,2471.41,13.3,0.006,350.5
2023-08-08T08:28:03,42.805,6.029,0.005,0.004,-0.007,105.0,106.0,102.0,13.3,1505.2,335.9,-0.7,1.8,2471.411,13.3,0.006,51.3
2023-08-08T08:31:03,42.805,6.029,0.0,0.0,-0.013,104.0,106.0,102.0,13.4,1505.2,322.0,-0.8,1.8,2471.389,13.3,0.0,0.0
2023-08-08T08:34:03,42.805,6.029,-0.001,0.017,-0.007,106.0,104.0,101.0,13.4,1505.2,320.4,-0.8,1.8,2471.393,13.3,0.017,356.6
2023-08-08T08:37:03,42.805,6.029,0.004,-0.006,-0.049,105.0,106.0,103.0,13.4,1505.2,350.1,-0.8,1.8,2471.413,13.3,0.007,146.3
2023-08-08T08:40:03,42.805,6.029,-0.024,0.012,-0.027,104.0,106.0,103.0,13.4,1505.2,328.5,-0.8,1.8,2471.404,13.3,0.026,296.6
2023-08-08T08:43:03,42.805,6.029,0.005,-0.004,-0.023,105.0,104.0,102.0,13.3,1505.2,331.3,-0.8,1.8,2471.42,13.3,0.006,128.7
2023-08-08T08:46:03,42.805,6.029,0.01,0.0,-0.036,104.0,105.0,103.0,13.3,1505.2,341.2,-0.7,1.8,2471.422,13.3,0.01,90.0
2023-08-08T08:49:03,42.805,6.029,0.001,0.008,-0.027,105.0,104.0,102.0,13.4,1505.2,345.6,-0.8,1.8,2471.394,13.3,0.008,7.1
2023-08-08T08:52:03,42.805,6.029,-0.01,0.026,-0.025,105.0,104.0,102.0,13.4,1505.2,344.0,-0.8,1.8,2471.42,13.3,0.027,339.0
2023-08-08T08:55:03,42.805,6.029,0.008,-0.01,-0.055,104.0,105.0,103.0,13.4,1505.2,330.9,-0.7,1.8,2471.449,13.3,0.012,141.3
2023-08-08T08:58:03,42.805,6.029,-0.001,0.003,-0.004,104.0,105.0,103.0,13.3,1505.2,326.3,-0.8,1.8,2471.435,13.3,0.003,341.6
2023-08-08T09:04:03,42.805,6.029,-0.001,0.005,-0.008,103.0,104.0,102.0,13.4,1505.2,335.6,-0.8,1.8,2471.431,13.3,0.005,348.7
2023-08-08T09:07:03,42.805,6.029,-0.016,-0.01,-0.019,104.0,105.0,101.0,13.4,1505.2,341.9,-0.7,1.8,2471.466,13.3,0.018,238.0
2023-08-08T09:10:03,42.805,6.029,-0.006,-0.002,0.001,104.0,104.0,102.0,13.4,1505.2,333.4,-0.8,1.8,2471.487,13.3,0.006,251.6
2023-08-08T09:13:03,42.805,6.029,-0.001,0.014,-0.036,104.0,105.0,101.0,13.4,1505.2,328.8,-0.8,1.8,2471.46,13.3,0.014,355.9
2023-08-08T09:16:03,42.805,6.029,0.005,0.014,-0.007,104.0,103.0,101.0,13.4,1505.2,330.7,-0.8,1.8,2471.447,13.3,0.014,19.6
2023-08-08T09:19:03,42.805,6.029,0.015,0.015,-0.018,106.0,105.0,101.0,13.3,1505.2,341.1,-0.8,1.8,2471.445,13.3,0.021,45.0
2023-08-08T09:22:03,42.805,6.029,-0.006,-0.001,-0.021,104.0,102.0,102.0,13.3,1505.2,322.9,-0.8,1.8,2471.465,13.3,0.006,260.5
2023-08-08T09:25:03,42.805,6.029,-0.013,0.006,-0.01,105.0,104.0,103.0,13.4,1505.2,329.7,-0.8,1.8,2471.443,13.3,0.014,294.8
2023-08-08T09:28:03,42.805,6.029,-0.002,0.006,-0.016,103.0,103.0,103.0,13.4,1505.2,348.9,-0.8,1.8,2471.449,13.3,0.006,341.6
2023-08-08T09:31:03,42.805,6.029,0.002,0.003,-0.059,104.0,104.0,102.0,13.4,1505.2,322.9,-0.8,1.8,2471.469,13.3,0.003,33.7
2023-08-08T09:34:03,42.805,6.029,0.026,-0.002,-0.045,104.0,105.0,103.0,13.4,1505.2,330.2,-0.8,1.8,2471.445,13.3,0.026,94.4
2023-08-08T09:37:03,42.805,6.029,0.0,0.011,-0.048,104.0,104.0,102.0,13.3,1505.2,328.3,-0.8,1.8,2471.462,13.3,0.011,0.0
2023-08-08T09:40:03,42.805,6.029,0.012,-0.004,-0.001,104.0,103.0,103.0,13.3,1505.2,328.3,-0.8,1.8,2471.448,13.3,0.012,108.4
2023-08-08T09:43:03,42.805,6.029,0.007,-0.007,-0.033,103.0,105.0,103.0,13.3,1505.2,331.3,-0.8,1.8,2471.44,13.3,0.009,135.0
2023-08-08T09:46:03,42.805,6.029,0.007,0.008,-0.004,105.0,103.0,102.0,13.4,1505.2,327.5,-0.8,1.8,2471.477,13.3,0.01,41.2
2023-08-08T09:49:03,42.805,6.029,-0.006,-0.004,0.012,105.0,104.0,102.0,13.3,1505.2,343.8,-0.8,1.7,2471.454,13.3,0.007,236.3
2023-08-08T09:52:03,42.805,6.029,0.002,-0.016,-0.019,104.0,104.0,103.0,13.4,1505.2,333.8,-0.7,1.8,2471.44,13.3,0.016,172.9
2023-08-08T09:55:03,42.805,6.029,-0.022,0.012,-0.015,104.0,104.0,103.0,13.3,1505.2,328.0,-0.7,1.8,2471.44,13.3,0.025,298.6
2023-08-08T09:58:03,42.805,6.029,0.002,-0.009,-0.036,104.0,107.0,102.0,13.3,1505.2,332.2,-0.8,1.8,2471.452,13.3,0.009,167.5